Weather History for KLHW - May, 2013

Change the Weather History Date:

Saturday, May 4, 2013

  Actual Average Record
Temperature  
Mean Temperature 64 °F -  
Max Temperature 70 °F 82 °F 92 °F (1974)
Min Temperature 60 °F 58 °F 42 °F (1971)
Growing Degree Days 14 (Base 50)    
Moisture  
Dew Point 61 °F    
Average Humidity 92    
Maximum Humidity 100    
Minimum Humidity 68    
Precipitation  
Precipitation 0.14 in - - ()
Sea Level Pressure  
Sea Level Pressure 29.87 in    
Wind  
Wind Speed 11 mph (ENE)    
Max Wind Speed 21 mph    
Max Gust Speed 33 mph    
Visibility 9 miles    
Events Rain    
Averages and records for this station are not official NWS values.
T = Trace of Precipitation, MM = Missing Value Source: NWS Daily Summary

Daily Weather History Graph

Daily Weather History Graph

Search for Another Location

Airport or City:

Trip Planner

Search our weather history database for the weather conditions in past years. The results will help you decide how hot, cold, wet, or windy it might be!

Date:

Astronomy

May. 04, 2013 Rise Set
Actual Time 6:37 AM EDT 8:08 PM EDT
Civil Twilight 6:11 AM EDT 8:35 PM EDT
Nautical Twilight 5:40 AM EDT 9:06 PM EDT
Astronomical Twilight 5:07 AM EDT 9:39 PM EDT
Moon 3:16 AM EDT (5/4) 3:22 PM EDT (5/4)
Length of Visible Light 14h 23m
Length of Day
13h 31m
Waning Crescent, 27% of the Moon is Illuminated
May 4
Waning Crescent
May 9
New
May 18
First Quarter
May 25
Full
May 31
Last Quarter

Hourly Weather History & Observations

Time (EDT) Temp. Dew Point Humidity Pressure Visibility Wind Dir Wind Speed Gust Speed Precip Events Conditions
12:58 AM 61.9 °F 59.5 °F 92% 29.93 in 10.0 mi ENE 12.7 mph - N/A   Overcast
1:58 AM 61.5 °F 59.2 °F 92% 29.91 in 10.0 mi NE 12.7 mph 18.4 mph N/A   Overcast
2:38 AM 62.6 °F 59.0 °F 88% 29.89 in 10.0 mi NE 8.1 mph - N/A   Overcast
2:58 AM 61.3 °F 59.5 °F 94% 29.89 in 10.0 mi NNE 9.2 mph - N/A   Overcast
3:26 AM 60.8 °F 59.0 °F 94% 29.88 in 10.0 mi NE 9.2 mph 18.4 mph N/A Rain Light Rain
3:36 AM 60.8 °F 59.0 °F 94% 29.88 in 10.0 mi NE 8.1 mph - N/A   Overcast
3:40 AM 60.8 °F 60.8 °F 100% 29.88 in 10.0 mi NE 6.9 mph - N/A   Light Drizzle
3:50 AM 60.8 °F 60.8 °F 100% 29.88 in 7.0 mi NE 9.2 mph 18.4 mph N/A Rain Light Rain
3:58 AM 61.2 °F 60.3 °F 97% 29.89 in 5.0 mi ENE 8.1 mph - 0.01 in Rain Light Rain
4:28 AM 60.8 °F 60.8 °F 100% 29.88 in 9.0 mi NNE 9.2 mph - N/A Rain Rain
4:33 AM 60.8 °F 60.8 °F 100% 29.88 in 10.0 mi NNE 9.2 mph - N/A Rain Light Rain
4:36 AM 60.8 °F 60.8 °F 100% 29.88 in 10.0 mi NNE 10.4 mph - N/A   Overcast
4:41 AM 60.8 °F 60.8 °F 100% 29.88 in 10.0 mi NE 9.2 mph - N/A   Overcast
4:51 AM 60.8 °F 60.8 °F 100% 29.88 in 10.0 mi NE 10.4 mph - N/A   Overcast
4:58 AM 61.0 °F 61.0 °F 100% 29.88 in 10.0 mi NE 9.2 mph - 0.01 in   Overcast
5:02 AM 60.8 °F 60.8 °F 100% 29.87 in 10.0 mi NNE 10.4 mph - N/A   Light Drizzle
5:12 AM 60.8 °F 60.8 °F 100% 29.87 in 9.0 mi NE 10.4 mph - N/A Rain Light Rain
5:13 AM 60.8 °F 60.8 °F 100% 29.87 in 9.0 mi NE 10.4 mph - N/A   Overcast
5:14 AM 60.8 °F 60.8 °F 100% 29.87 in 9.0 mi NE 9.2 mph - N/A Rain Light Rain
5:19 AM 60.8 °F 60.8 °F 100% 29.87 in 10.0 mi NNE 10.4 mph - N/A Rain Light Rain
5:38 AM 60.8 °F 60.8 °F 100% 29.87 in 10.0 mi NE 10.4 mph - N/A   Overcast
5:47 AM 60.8 °F 60.8 °F 100% 29.87 in 10.0 mi NNE 11.5 mph - N/A Rain Light Rain
5:57 AM 60.8 °F 60.8 °F 100% 29.87 in 9.0 mi NE 11.5 mph - N/A Rain Rain
5:58 AM 60.8 °F 60.8 °F 100% 29.88 in 9.0 mi NE 10.4 mph - 0.01 in Rain Rain
6:13 AM 60.8 °F 60.8 °F 100% 29.87 in 10.0 mi NE 10.4 mph - N/A Rain Light Rain
6:41 AM 60.8 °F 60.8 °F 100% 29.88 in 10.0 mi NNE 10.4 mph - N/A   Overcast
6:46 AM 60.8 °F 60.8 °F 100% 29.88 in 10.0 mi NE 8.1 mph - N/A   Overcast
6:58 AM 61.3 °F 61.3 °F 100% 29.90 in 10.0 mi NE 10.4 mph - 0.01 in   Overcast
7:00 AM 60.8 °F 60.8 °F 100% 29.89 in 10.0 mi ENE 10.4 mph 16.1 mph N/A   Light Drizzle
7:40 AM 60.8 °F 60.8 °F 100% 29.89 in 4.0 mi NE 12.7 mph 25.3 mph N/A Rain Light Rain
7:45 AM 60.8 °F 60.8 °F 100% 29.90 in 7.0 mi NE 10.4 mph 25.3 mph N/A   Light Drizzle
7:50 AM 60.8 °F 60.8 °F 100% 29.90 in 9.0 mi NE 8.1 mph - N/A   Light Drizzle
7:54 AM 60.8 °F 60.8 °F 100% 29.90 in 7.0 mi NE 8.1 mph - N/A   Overcast
7:57 AM 60.8 °F 60.8 °F 100% 29.90 in 6.0 mi NE 10.4 mph - N/A Rain Light Rain
7:58 AM 60.3 °F 60.3 °F 100% 29.91 in 6.0 mi NE 10.4 mph - 0.01 in Rain Light Rain
8:08 AM 60.8 °F 60.8 °F 100% 29.90 in 2.0 mi NE 9.2 mph - N/A Rain Heavy Rain
8:18 AM 60.8 °F 60.8 °F 100% 29.90 in 4.0 mi NE 8.1 mph - N/A Rain Light Rain
8:53 AM 60.8 °F 60.8 °F 100% 29.90 in 10.0 mi ENE 9.2 mph - N/A   Light Drizzle
8:58 AM 60.1 °F 60.1 °F 100% 29.91 in 10.0 mi ENE 9.2 mph - 0.06 in   Light Drizzle
9:00 AM 60.8 °F 60.8 °F 100% 29.90 in 10.0 mi ENE 9.2 mph - N/A   Overcast
9:07 AM 60.8 °F 60.8 °F 100% 29.90 in 10.0 mi NE 9.2 mph - N/A Rain Light Rain
9:12 AM 60.8 °F 60.8 °F 100% 29.90 in 10.0 mi NE 8.1 mph - N/A Rain Light Rain
9:22 AM 60.8 °F 60.8 °F 100% 29.89 in 10.0 mi NE 9.2 mph - N/A Rain Light Rain
9:27 AM 62.6 °F 62.6 °F 100% 29.89 in 10.0 mi NE 10.4 mph - N/A   Light Drizzle
9:32 AM 62.6 °F 62.6 °F 100% 29.89 in 10.0 mi ENE 9.2 mph - N/A   Light Drizzle
9:39 AM 62.6 °F 62.6 °F 100% 29.89 in 10.0 mi NE 9.2 mph - N/A   Overcast
9:55 AM 62.6 °F 62.6 °F 100% 29.89 in 10.0 mi ENE 17.3 mph 23.0 mph N/A   Light Drizzle
9:58 AM 62.6 °F 62.6 °F 100% 29.90 in 10.0 mi ENE 18.4 mph 23.0 mph 0.00 in   Light Drizzle
10:13 AM 62.6 °F 62.6 °F 100% 29.90 in 9.0 mi ENE 16.1 mph 28.8 mph N/A Rain Light Rain
10:19 AM 62.6 °F 62.6 °F 100% 29.90 in 10.0 mi ENE 11.5 mph 27.6 mph N/A   Overcast
10:24 AM 62.6 °F 62.6 °F 100% 29.90 in 10.0 mi ENE 11.5 mph - N/A   Mostly Cloudy
10:44 AM 64.4 °F 62.6 °F 94% 29.90 in 10.0 mi East 12.7 mph - N/A   Overcast
10:58 AM 64.4 °F 62.1 °F 92% 29.91 in 10.0 mi East 13.8 mph 21.9 mph 0.00 in   Overcast
11:27 AM 66.2 °F 62.6 °F 88% 29.90 in 10.0 mi East 16.1 mph - N/A Rain Light Rain
11:32 AM 64.4 °F 62.6 °F 94% 29.90 in 8.0 mi ENE 15.0 mph - N/A Rain Light Rain
11:58 AM 63.9 °F 62.2 °F 94% 29.91 in 5.0 mi East 13.8 mph 21.9 mph 0.01 in   Light Drizzle
12:07 PM 64.4 °F 62.6 °F 94% 29.90 in 8.0 mi East 10.4 mph - N/A   Overcast
12:17 PM 64.4 °F 62.6 °F 94% 29.89 in 10.0 mi East 11.5 mph - N/A   Overcast
12:22 PM 64.4 °F 62.6 °F 94% 29.89 in 10.0 mi East 11.5 mph - N/A   Overcast
12:27 PM 64.4 °F 62.6 °F 94% 29.89 in 10.0 mi East 10.4 mph - N/A   Overcast
12:28 PM 64.4 °F 62.6 °F 94% 29.89 in 10.0 mi East 11.5 mph - N/A   Light Drizzle
12:33 PM 64.4 °F 62.6 °F 94% 29.89 in 9.0 mi East 15.0 mph - N/A   Light Drizzle
12:38 PM 64.4 °F 62.6 °F 94% 29.89 in 8.0 mi East 10.4 mph 20.7 mph N/A   Overcast
12:58 PM 64.2 °F 62.8 °F 95% 29.89 in 10.0 mi ENE 11.5 mph - 0.00 in   Overcast
1:13 PM 66.2 °F 62.6 °F 88% 29.87 in 10.0 mi East 12.7 mph - N/A   Light Drizzle
1:27 PM 66.2 °F 62.6 °F 88% 29.87 in 9.0 mi ENE 15.0 mph 25.3 mph N/A   Overcast
1:57 PM 68.0 °F 60.8 °F 78% 29.86 in 10.0 mi East 13.8 mph 28.8 mph N/A   Overcast
1:58 PM 68.0 °F 60.8 °F 78% 29.87 in 10.0 mi East 13.8 mph 28.8 mph 0.01 in   Overcast
2:03 PM 68.0 °F 60.8 °F 78% 29.86 in 10.0 mi East 12.7 mph 23.0 mph N/A   Overcast
2:13 PM 69.8 °F 60.8 °F 73% 29.86 in 10.0 mi East 20.7 mph 28.8 mph N/A   Overcast
2:48 PM 69.8 °F 60.8 °F 73% 29.84 in 10.0 mi East 20.7 mph 29.9 mph N/A   Overcast
2:58 PM 69.8 °F 60.8 °F 73% 29.85 in 10.0 mi East 17.3 mph 29.9 mph N/A   Overcast
3:08 PM 69.8 °F 60.8 °F 73% 29.84 in 10.0 mi East 16.1 mph 29.9 mph N/A   Overcast
3:18 PM 69.8 °F 60.8 °F 73% 29.84 in 10.0 mi East 18.4 mph 27.6 mph N/A   Mostly Cloudy
3:28 PM 69.8 °F 60.8 °F 73% 29.84 in 10.0 mi East 15.0 mph 27.6 mph N/A   Overcast
3:38 PM 69.8 °F 59.0 °F 68% 29.84 in 10.0 mi East 16.1 mph 26.5 mph N/A   Overcast
3:53 PM 69.8 °F 60.8 °F 73% 29.84 in 10.0 mi East 17.3 mph 23.0 mph N/A   Overcast
3:58 PM 69.8 °F 60.8 °F 73% 29.85 in 10.0 mi East 18.4 mph 24.2 mph N/A   Overcast
4:02 PM 69.8 °F 60.8 °F 73% 29.84 in 10.0 mi East 19.6 mph 28.8 mph N/A   Light Drizzle
4:11 PM 68.0 °F 60.8 °F 78% 29.84 in 10.0 mi East 20.7 mph 33.4 mph N/A   Overcast
4:16 PM 68.0 °F 60.8 °F 78% 29.84 in 10.0 mi East 17.3 mph 33.4 mph N/A Rain Light Rain
4:21 PM 68.0 °F 60.8 °F 78% 29.84 in 9.0 mi East 18.4 mph 23.0 mph N/A Rain Light Rain
4:37 PM 66.2 °F 60.8 °F 83% 29.84 in 10.0 mi East 12.7 mph - N/A   Overcast
4:43 PM 66.2 °F 60.8 °F 83% 29.84 in 10.0 mi East 13.8 mph 19.6 mph N/A   Light Drizzle
4:58 PM 66.4 °F 62.4 °F 87% 29.84 in 9.0 mi East 15.0 mph 21.9 mph 0.00 in Rain Light Rain
5:24 PM 66.2 °F 62.6 °F 88% 29.83 in 10.0 mi East 13.8 mph - N/A   Mostly Cloudy
5:35 PM 66.2 °F 62.6 °F 88% 29.84 in 10.0 mi East 12.7 mph - N/A   Light Drizzle
5:44 PM 66.2 °F 62.6 °F 88% 29.84 in 10.0 mi East 11.5 mph - N/A   Scattered Clouds
5:58 PM 65.8 °F 62.1 °F 88% 29.84 in 10.0 mi East 13.8 mph 19.6 mph 0.00 in   Mostly Cloudy
6:22 PM 66.2 °F 62.6 °F 88% 29.83 in 10.0 mi East 12.7 mph - N/A   Light Drizzle
6:37 PM 64.4 °F 62.6 °F 94% 29.84 in 10.0 mi East 12.7 mph - N/A   Mostly Cloudy
6:58 PM 65.1 °F 61.5 °F 88% 29.84 in 10.0 mi East 13.8 mph 24.2 mph 0.00 in   Overcast
7:58 PM 64.4 °F 61.9 °F 92% 29.83 in 10.0 mi East 12.7 mph 21.9 mph N/A   Mostly Cloudy
8:58 PM 64.6 °F 61.7 °F 90% 29.83 in 10.0 mi East 10.4 mph - N/A   Overcast
9:58 PM 64.4 °F 61.9 °F 92% 29.84 in 10.0 mi East 15.0 mph 19.6 mph N/A   Overcast
10:51 PM 64.4 °F 60.8 °F 88% 29.84 in 10.0 mi East 13.8 mph 23.0 mph N/A   Light Drizzle
10:57 PM 64.4 °F 60.8 °F 88% 29.84 in 10.0 mi East 11.5 mph 23.0 mph N/A   Overcast
10:58 PM 64.8 °F 61.5 °F 89% 29.85 in 10.0 mi East 10.4 mph 23.0 mph 0.00 in   Overcast
11:20 PM 64.4 °F 60.8 °F 88% 29.83 in 10.0 mi East 12.7 mph 21.9 mph N/A   Light Drizzle
11:47 PM 62.6 °F 60.8 °F 94% 29.82 in 10.0 mi East 11.5 mph - N/A   Overcast
11:58 PM 63.5 °F 61.2 °F 92% 29.83 in 10.0 mi East 12.7 mph - 0.01 in   Overcast